Weather in Gus-Chrustalniy

Russia / Vladimir Oblast     55°37′11″N   40°39′28″E
temp.,
°C
wind,
m/s
gust,
m/s
humid.,
%
clouds,
%
prec.,
mm/h
press.,
hPa
HPBL,
m
7 march, sun
sun700:00−13wsw239519 0.0 101325
03:00−14sw36949 0.0 1011114
06:00−12ssw4119249 0.0 1008294
09:00−7ssw7158275 0.0 1003950
12:00−5sw71492100 1.3 9991116
15:00−3sw71294100 2.9 9951044
18:00−3ssw51195100 1.6 993880
21:00−5nnw81489100 4.4 991741
8 march, mon
mon800:00−9w239347 0.1 99242
03:00−7wsw499673 0.8 995518
06:00−10wsw4109397 0.7 996359
09:00−9wsw499396 0.7 997491
12:00−6wsw4793100 0.4 997732
15:00−5wnw4779100 1.4 9991063
18:00−8nw4108899 0.3 1002441
21:00−12nw399450 0.3 1005225
9 march, tue
tue900:00−15nw379726 0.0 1007135
03:00−17nw239849 0.0 100980
06:00−18nw259897 0.0 101196
09:00−16nnw369595 0.1 1013284
12:00−13nw3592100 0.0 1014455
15:00−12nw4689100 0.1 1016602
18:00−17nnw389499 0.0 1016203
21:00−21nnw389753 0.0 1019141
10 march, wed
wed1000:00−23nnw359958 0.0 102095
03:00−25nnw369967 0.0 102295
06:00−27nnw339932 0.0 102468
09:00−24nnw359616 0.0 1025242
12:00−18nnw358922 0.0 1026447
15:00−15nnw358211 0.0 1026641
18:00−20nw23920 0.0 102621
21:00−23wnw22910 0.0 102820
11 march, thu
thu1100:00−23w22940 0.0 102820
03:00−23w23950 0.0 102920
06:00−23w23959 0.0 102923
09:00−18wsw23914 0.0 1029149
12:00−11sw24790 0.0 1028400
15:00−9ssw36790 0.0 1027556
18:00−12s379430 0.0 1026194
21:00−14s4109665 0.1 1026298